Vorticity
nan nan nan nan nan nan nan nan nan nan nan nan nan nan nan nan nan nan nan nan nan nan nan nan nan nan nan nan nan nan nan nan nan nan nan nan nan nan nan nan nan nan nan nan
nan 10 10 8 8 6 5 4 6 7 11 7 14 13 17 12 12 7 4 6 6 7 8 8 8 7 8 7 6 6 6 6 5 5 6 9 11 9 10 9 10 9 9 nan
nan 8 13 7 6 8 7 11 10 5 10 10 9 12 15 3 8 15 11 8 8 9 7 9 8 6 6 7 8 7 7 5 5 4 2 5 7 8 8 9 10 10 9 nan
nan 17 8 3 9 8 4 12 8 9 7 10 4 10 11 21 8 4 8 8 8 7 6 9 9 8 8 6 6 8 9 7 7 7 5 5 4 4 6 8 9 10 9 nan
nan 13 10 5 8 5 11 12 9 8 7 5 4 11 14 17 11 8 7 8 8 8 7 8 10 7 7 9 8 9 8 8 8 7 5 5 5 7 8 11 10 8 10 nan
nan 8 12 9 12 9 7 4 6 10 13 8 14 5 7 14 13 7 7 9 9 9 7 7 7 9 9 10 10 11 9 8 8 8 8 6 5 5 5 7 9 8 9 nan
nan 6 4 13 7 7 7 5 5 8 10 12 15 6 8 11 17 14 8 7 9 8 8 7 6 9 10 9 8 9 9 8 8 8 8 7 7 7 5 4 7 7 6 nan
nan 12 9 5 11 10 5 3 10 10 7 14 9 7 14 15 11 14 12 12 9 9 10 9 7 6 9 9 7 7 8 9 9 8 8 8 6 5 9 8 7 8 8 nan
nan 7 13 8 17 9 8 11 2 4 9 12 3 6 15 17 13 13 13 12 12 11 10 9 8 7 8 10 10 8 7 8 8 8 8 9 8 7 7 8 7 8 8 nan
nan 17 18 11 2 10 11 6 4 10 14 3 10 12 14 11 9 5 11 14 12 13 11 10 10 9 9 11 11 8 9 11 8 8 7 9 9 7 7 8 8 7 8 nan
nan 13 10 19 14 2 -4 6 9 14 8 5 9 12 14 9 14 12 7 9 12 12 12 11 10 11 9 9 12 11 9 9 8 9 8 7 9 9 8 7 8 9 8 nan
nan 12 15 5 8 21 9 1 6 5 8 7 10 8 10 16 16 10 9 10 12 14 16 14 12 11 12 11 10 11 10 8 9 9 9 8 8 10 8 7 8 9 8 nan
nan 12 13 8 12 18 16 11 5 -4 10 13 -2 4 10 13 9 7 10 11 12 9 12 16 16 13 12 11 9 11 10 9 8 9 9 9 9 8 8 8 8 8 9 nan
nan 11 10 6 4 4 6 13 15 9 -3 8 1 -2 10 11 9 7 10 11 10 9 10 13 15 12 11 12 10 9 9 11 11 10 10 9 9 8 8 9 9 8 8 nan
nan 7 10 9 7 10 7 4 6 16 14 5 8 9 6 10 13 10 5 8 11 11 11 13 13 11 11 11 11 9 11 11 11 10 9 9 9 9 9 10 9 9 9 nan
nan 14 10 7 10 9 11 16 12 11 13 14 9 16 15 9 5 9 10 11 9 9 10 11 12 12 12 12 11 11 10 11 10 9 8 9 10 10 8 9 9 9 9 nan
nan 13 9 8 7 6 20 22 15 10 10 12 15 6 6 12 11 7 8 9 8 8 11 11 12 9 10 12 12 10 10 11 11 8 10 10 10 9 9 9 9 9 9 nan
nan 10 9 10 10 10 5 11 27 22 8 3 12 15 12 5 8 14 14 9 7 10 9 9 10 11 12 13 12 12 14 13 11 9 9 11 11 9 9 9 9 9 10 nan
nan -2 9 15 4 1 12 18 11 17 18 22 11 6 13 14 4 12 19 16 12 11 12 12 13 13 11 10 13 14 13 13 11 11 9 10 10 11 9 9 8 8 10 nan
nan 5 1 6 11 10 12 10 8 8 5 8 23 17 2 10 9 9 15 12 12 10 12 14 13 13 14 12 14 12 11 10 9 11 11 10 10 10 9 10 10 8 8 nan
nan 20 12 2 2 6 10 6 19 10 -3 4 12 11 16 11 12 10 8 13 15 15 13 14 17 12 10 16 16 12 11 10 12 10 12 11 11 11 11 8 9 11 10 nan
nan 8 13 11 13 8 8 14 8 3 7 9 9 13 14 11 13 15 12 14 14 10 12 16 12 13 18 17 15 15 15 9 13 18 14 14 12 9 13 12 10 14 12 nan
nan 9 9 10 3 12 12 9 4 6 9 7 12 18 23 20 13 13 10 10 14 12 11 14 13 10 13 15 17 11 10 19 15 13 12 13 15 15 16 17 13 12 13 nan
nan 12 12 9 7 10 5 8 12 7 8 10 20 27 26 23 15 14 13 11 11 11 13 13 10 10 9 10 13 15 15 14 13 13 13 14 13 15 16 19 18 16 15 nan
nan 5 11 13 13 12 14 8 5 10 7 15 16 25 26 16 14 11 10 11 11 11 11 12 10 9 9 9 9 11 15 16 14 15 14 12 14 12 9 12 16 14 18 nan
nan nan nan nan nan nan nan nan nan nan nan nan nan nan nan nan nan nan nan nan nan nan nan nan nan nan nan nan nan nan nan nan nan nan nan nan nan nan nan nan nan nan nan nan
CAPE
0 0 0 0 0 0 0 0 0 0 0 0 0 0 134 221 263 344 415 385 342 337 293 397 438 428 376 442 286 308 319 231 215 364 338 365 392 230 216 267 475 566 654 1009
0 0 0 0 0 0 0 0 0 0 0 0 0 0 153 209 254 352 444 449 420 390 311 413 414 311 260 342 210 237 253 223 197 287 427 457 404 141 320 520 367 494 689 1048
0 0 0 0 0 0 0 0 0 0 0 0 0 0 31 214 193 192 214 409 445 418 402 394 384 323 269 254 185 173 268 227 325 253 223 145 176 328 323 386 553 476 735 1096
0 0 0 0 0 0 0 0 0 0 0 0 0 0 0 109 174 142 69 85 206 217 306 171 314 255 334 250 161 141 208 287 354 284 281 432 566 680 595 406 490 656 805 785
0 0 0 0 0 0 0 0 0 0 0 0 0 0 0 2 125 128 148 129 89 45 59 10 0 264 223 334 157 64 118 267 273 343 376 355 496 370 90 371 553 447 510 803
0 0 0 0 0 0 0 0 0 0 0 0 0 0 0 0 77 153 112 149 170 110 43 18 0 17 139 250 148 81 167 275 264 265 349 341 377 138 166 200 475 473 491 590
0 0 0 0 0 0 0 0 0 0 0 0 0 0 0 0 0 17 76 46 83 133 101 56 14 0 65 129 142 93 181 257 311 257 296 365 332 229 278 170 308 345 413 495
0 0 0 0 0 0 0 0 0 0 0 0 0 0 0 0 0 0 1 17 11 11 31 55 34 0 0 90 142 105 205 213 306 387 371 421 443 417 376 220 235 298 458 599
0 0 0 0 0 0 0 0 0 0 0 0 0 0 0 0 0 0 0 0 0 0 0 3 6 11 0 12 123 75 209 177 262 486 498 489 522 548 464 312 201 269 487 624
0 0 0 0 0 0 0 0 0 0 0 0 0 0 0 0 0 0 0 0 0 0 0 0 0 0 0 0 57 118 151 204 269 547 616 614 609 589 530 376 253 285 354 675
0 0 0 0 0 0 0 0 0 0 0 0 0 0 0 0 0 0 0 0 0 0 0 0 1 5 1 0 13 66 121 210 246 622 738 759 722 673 605 505 442 302 336 499
0 0 0 0 0 0 0 0 0 0 0 0 0 0 0 0 0 0 0 0 0 0 0 0 0 2 1 0 1 28 74 238 303 487 779 834 804 759 665 634 671 477 343 272
0 0 0 0 0 0 0 0 0 0 0 0 0 0 0 0 0 0 0 0 0 0 0 0 0 0 0 0 0 18 69 252 362 466 686 828 864 855 827 842 893 714 490 304
0 0 0 0 0 0 0 0 0 0 0 0 0 0 0 0 0 0 0 0 0 0 0 0 0 0 0 0 0 7 92 250 410 488 718 757 832 878 922 992 1078 1045 735 405
0 0 0 0 0 0 0 0 0 0 0 0 0 0 0 0 0 0 0 0 0 0 0 0 0 0 0 0 2 26 134 342 519 570 685 858 809 803 854 881 959 1126 1164 875
0 0 0 0 0 0 0 0 0 0 0 0 0 0 0 0 0 0 0 0 0 0 0 0 0 0 0 0 5 51 203 525 658 705 725 860 1035 1056 1043 1080 960 860 1133 1260
0 0 0 0 0 0 0 0 0 0 0 0 0 0 0 0 0 0 0 0 0 0 0 0 0 0 0 0 4 147 270 637 832 862 894 970 1076 1192 1209 1260 1242 1111 954 1106
0 0 0 0 0 0 0 0 0 0 0 0 0 0 0 0 0 0 0 0 0 0 0 0 0 0 0 0 0 96 242 631 1072 1058 1041 1183 1266 1309 1374 1383 1479 1440 1300 1166
0 0 0 0 0 0 0 0 0 0 0 0 0 0 0 0 0 0 0 0 0 0 0 0 0 0 0 0 0 30 253 608 1212 1314 1313 1389 1567 1523 1500 1613 1758 1771 1705 1539
0 0 0 0 0 0 0 0 0 0 0 0 0 0 0 0 0 0 0 0 0 0 0 0 0 0 0 0 0 30 262 596 1054 1565 1629 1648 1707 1703 1624 1689 1816 1944 1994 1932
0 0 0 0 0 0 0 3 6 0 0 0 0 0 0 0 0 0 0 0 0 0 0 0 0 0 0 0 0 108 286 601 980 1374 1700 1804 1902 1960 1910 1869 1860 1907 2046 2193
0 0 2 1 2 0 9 9 4 0 0 0 1 0 0 0 0 0 0 0 0 0 0 0 0 0 0 0 100 250 402 697 839 1194 1649 1879 2052 2176 2191 2228 2166 2020 2137 2353
0 0 4 0 0 0 32 0 0 0 0 0 1 0 0 0 0 0 0 623 1282 1695 1733 1011 1170 1586 1654 353 0 9 35 227 607 897 1144 1759 2010 2215 2414 2487 2500 2469 2506 2460
17 2 73 31 0 0 97 38 0 0 0 0 0 1 18 118 463 1126 1547 1633 1192 1158 1307 1333 1662 1758 1973 1819 1472 1396 1655 1068 199 465 707 999 1423 1959 2222 2273 2410 2597 2656 2604
0 0 0 26 0 44 176 0 0 1 0 0 24 12 816 1150 1155 1393 1375 1269 1068 995 1125 1425 1535 1474 1757 1705 1739 1624 1864 935 417 553 592 1019 858 24 0 0 1 149 2 708
2 0 6 0 0 43 62 0 0 30 4 21 86 140 107 547 484 511 369 402 482 409 488 531 624 533 574 763 985 975 760 1355 623 117 20 12 1 1 5 14 0 0 0 0